Location: Bettolelle
(43.6500°N, 13.1667°E)
Time: 05:03:51
(UTC+00:00)

Daily predictions for brighter satellites

Satellite Brightness Start Highest point End
(mag) Time Altitude Azimuth Time Altitude Azimuth Time Altitude Azimuth
SJ 16-02 2.9 00:09:53 34° NNE 00:09:53 34° NNE 00:12:25 10° NNE
Cosmos 2263 Rocket 3.4 00:14:58 30° E 00:14:58 30° E 00:19:14 10° NE
SL-16 R/B 2.8 00:09:40 10° NNW 00:13:47 48° NW 00:13:47 48° NW
Cosmos 2142 Rocket 4.5 00:17:47 81° NW 00:17:47 81° NW 00:24:02 10° N
Cosmos 1937 Rocket 4.0 00:27:08 55° ENE 00:27:08 55° ENE 00:31:36 10° NNE
SL-19 R/B 4.3 00:21:32 10° NNE 00:26:52 76° NNE 00:26:52 76° NNE
Cosmos 990 Rocket 4.4 00:29:47 60° N 00:29:47 60° N 00:34:02 10° NNE
Cosmos 2297 Rocket 3.6 00:28:55 27° WNW 00:29:22 28° NW 00:34:12 10° N
ADEOS II 3.8 00:28:43 10° NE 00:32:50 23° E 00:33:36 22° ESE
Cosmos 1455 Rocket 4.2 00:35:30 43° NE 00:35:30 43° NE 00:38:43 10° NNE
ATLAS CENTAUR R/B 3.8 00:37:35 15° E 00:37:35 15° E 00:38:48 10° ENE
USA 229 DEB 3.4 00:36:45 80° WSW 00:37:08 86° NW 00:44:01 10° NE
USA 229 3.4 00:36:53 81° WSW 00:37:15 86° NW 00:44:06 10° NE
Cosmos 2266 Rocket 4.2 00:31:07 10° N 00:37:24 63° E 00:38:25 55° ESE
UNK 4.3 00:38:59 55° NNE 00:38:59 55° NNE 00:42:53 10° N
Cosmos 1898 Rocket 3.8 00:43:57 62° NNW 00:43:57 62° NNW 00:48:31 10° NNE
NOSS 2-3 (C) 4.3 00:48:09 53° NE 00:48:09 53° NE 00:52:00 10° NE
GEOS 3 Rocket 3.9 00:42:12 10° NE 00:47:19 62° ESE 00:47:19 62° ESE
NOSS 3-1 (A) 3.1 00:48:36 85° E 00:48:36 85° E 00:54:49 10° NE
IRAS Rocket 4.1 00:49:56 88° E 00:49:59 88° ENE 00:55:37 10° NNW
Meteor 1-24 Rocket 3.9 00:44:43 10° NNW 00:49:07 54° NW 00:49:07 54° NW
Cosmos 1603 3.9 00:50:15 10° NNW 00:55:59 70° ENE 00:57:17 52° SE
Cosmos 1340 Rocket 3.9 01:07:07 40° N 01:07:07 40° N 01:09:45 10° N
Cosmos 1758 4.2 01:08:43 45° N 01:08:43 45° N 01:11:35 10° N
CZ-2D R/B 2.1 01:02:18 10° N 01:07:47 75° WNW 01:08:00 74° W
SL-16 R/B 2.4 01:09:25 63° SW 01:09:52 65° WSW 01:16:06 10° NNW
Timation 1 Rocket 4.4 01:10:12 57° W 01:10:50 61° WNW 01:16:45 10° NNE
SL-24 R/B 4.4 01:12:55 73° WNW 01:12:55 73° WNW 01:17:59 10° N
Cosmos 1943 3.1 01:08:54 10° NNW 01:14:33 81° ENE 01:16:10 49° SE
USA 215 4.2 01:09:10 10° ENE 01:14:56 32° SE 01:16:30 29° SSE
Cosmos 1655 Rocket 4.2 01:12:17 10° NNW 01:18:15 49° W 01:18:27 49° W
Cosmos 2227 Rocket 4.3 01:18:31 13° WNW 01:20:33 15° NW 01:23:48 10° N
Cosmos 1544 Rocket 4.0 01:22:37 55° NW 01:22:37 55° NW 01:26:27 10° N
Cosmos 1470 4.0 01:24:18 33° NW 01:24:18 33° NW 01:26:58 10° N
Cosmos 1953 2.7 01:23:54 64° NE 01:23:54 64° NE 01:27:32 10° NNE
IRS-1D 3.5 01:19:41 10° NNE 01:24:50 76° ESE 01:25:39 62° SSE
NPP 3.7 01:21:14 10° N 01:26:33 61° WNW 01:27:04 58° W
AQUA 3.9 01:29:36 10° N 01:34:17 58° WNW 01:34:26 58° W
Atlas Centaur 2 3.8 01:38:02 22° SSE 01:38:02 22° SSE 01:42:40 10° ESE
Resurs 1-4 Rocket 2.8 01:36:13 10° N 01:41:02 37° WNW 01:41:36 36° W
Cosmos 1602 Rocket 3.3 01:40:02 10° NNW 01:44:22 75° W 01:44:26 75° WSW
Meteor 2-21 Rocket 4.4 01:38:56 10° N 01:45:02 89° E 01:48:18 30° S
BREEZE-M DEB (TANK) 4.5 01:46:23 24° SE 01:47:01 25° ESE 01:52:42 10° ENE
IDEFIX/ARIANE 42P 3.7 01:45:01 10° NNE 01:49:55 39° E 01:53:20 18° SSE
Meteor 2-14 Rocket 4.3 01:44:16 10° NNW 01:50:19 70° W 01:52:41 38° SSW
Cosmos 1908 3.2 01:56:15 66° SSE 01:56:44 82° E 02:00:40 10° N
Cosmos 1048 Rocket 3.8 01:52:39 10° NNW 01:57:50 84° WSW 02:01:21 21° SSE
Cosmos 2263 Rocket 2.9 01:56:40 33° W 01:58:09 40° WNW 02:03:23 10° NNE
Cosmos 2298 Rocket 4.1 01:57:57 45° WSW 01:59:21 61° WNW 02:04:39 10° NNE
IRS-P3 4.0 01:54:26 10° NNE 01:59:49 82° WNW 02:01:52 40° SSW
Cosmos 2228 3.5 01:59:31 32° SSE 02:01:23 59° E 02:05:44 10° NNE
Meteor 1-16 Rocket 4.1 02:01:58 40° SSW 02:03:56 72° W 02:09:33 10° N
Meteor 1-28 Rocket 3.1 02:06:33 52° S 02:07:26 82° WSW 02:11:16 10° NNW
SL-08 R/B 3.3 02:05:26 27° S 02:08:12 78° WSW 02:13:11 10° NNW
Cosmos 1356 Rocket 3.9 02:10:31 27° SSE 02:12:36 57° E 02:16:38 10° NNE
ADEOS II 2.5 02:07:43 10° N 02:12:45 48° WNW 02:14:31 35° WSW
Cosmos 2285 Rocket 4.1 02:10:59 33° SW 02:13:47 62° WNW 02:20:03 10° NNE
Cosmos 1726 3.7 02:14:19 22° WNW 02:14:19 22° WNW 02:16:46 10° NNW
ATLAS CENTAUR R/B 1.8 02:13:46 39° W 02:14:36 45° NW 02:18:23 10° NNE
Spot 4 Rocket 4.3 02:09:28 10° NNE 02:14:38 68° ESE 02:18:02 22° S
CZ-2C R/B 3.9 02:11:11 10° NNE 02:14:45 38° E 02:17:08 18° SSE
CZ-4B R/B 4.2 02:11:23 10° N 02:15:35 32° WNW 02:16:40 29° W
Cosmos 1900 4.4 02:11:53 10° NNW 02:17:03 85° ENE 02:22:13 10° SSE
Cosmos 1300 3.8 02:14:37 18° SSE 02:17:04 42° E 02:20:42 10° NNE
Cosmos 1553 Rocket 3.9 02:15:29 26° SSW 02:19:09 79° W 02:25:19 10° N
NOSS 2-2 (C) 4.0 02:18:19 30° SSE 02:19:31 41° ESE 02:23:04 10° NE
Cosmos 1844 Rocket 2.8 02:17:42 25° S 02:20:58 72° ESE 02:26:32 10° NNE
ERS-2 4.0 02:18:10 10° SE 02:21:26 31° ENE 02:24:42 10° N
NOSS 8 (H) 4.1 02:24:24 59° WSW 02:24:51 73° NW 02:27:52 10° NNE
CZ-4C R/B 4.0 02:22:00 10° SE 02:25:08 44° ENE 02:28:24 10° N
Meteor 1-11 4.2 02:21:00 10° NNW 02:26:46 85° W 02:32:25 10° S
SL-08 ROCKET BODY 4.3 02:23:56 10° N 02:29:59 84° W 02:35:54 10° S
Cosmos 1745 Rocket 3.9 02:25:28 10° N 02:31:46 86° W 02:37:57 10° S
Lacrosse 5 rocket 4.0 02:29:53 10° SSE 02:32:22 15° ESE 02:34:54 10° E
ARIANE 5 R/B 2.7 02:28:03 10° N 02:33:12 59° WNW 02:36:11 25° SW
Cosmos 1758 Rocket 4.0 02:32:29 10° NNW 02:36:32 40° W 02:38:14 28° SW
SeaSat 1 4.3 02:32:57 10° NE 02:37:07 27° ESE 02:41:15 10° SSE
Meteor 2-15 4.4 02:31:50 12° S 02:37:29 85° E 02:43:34 10° N
Cosmos 2058 Rocket 3.1 02:41:30 14° S 02:45:21 86° ESE 02:49:49 10° N
Cosmos 494 Rocket 4.1 02:41:10 10° NNW 02:46:09 49° WSW 02:51:08 10° S
H-2A R/B 1.9 02:42:07 10° SSE 02:46:13 89° ENE 02:50:20 10° NNW
CZ-2D R/B 4.2 02:44:50 10° NNW 02:46:53 12° NW 02:48:55 10° WNW
S3M 4.1 02:45:35 15° SSW 02:51:01 63° W 02:57:22 10° N
CZ-2C R/B 3.2 02:49:21 10° NNE 02:53:48 47° E 02:58:20 10° S
Cosmos 1825 Rocket 4.3 02:51:12 10° NNW 02:55:03 32° W 02:57:30 18° SW
Landsat 5 3.3 02:51:11 10° S 02:55:10 78° WSW 02:59:20 10° NNW
Cosmos 1125 Rocket 4.4 02:54:00 19° WSW 02:57:02 33° WNW 03:01:49 10° N
USA 215 3.3 02:51:44 10° NE 02:58:17 77° NW 03:03:50 15° WSW
CZ-4B R/B 3.2 03:01:13 10° SE 03:04:07 33° ENE 03:07:00 10° N
Cosmos 1892 3.6 03:01:38 10° N 03:05:24 51° E 03:09:06 10° SSE
Cosmos 1953 Rocket 4.2 03:02:26 10° NNW 03:06:35 37° W 03:10:40 10° SSW
CZ-2D R/B 4.5 03:06:56 10° N 03:10:20 28° WNW 03:12:51 15° WSW
Cosmos 1709 Rocket 3.9 03:05:24 10° N 03:11:33 76° W 03:17:37 10° S
ALOS 4.4 03:10:01 10° NE 03:14:02 28° E 03:18:01 10° SSE
OAO 2 Rocket 4.3 03:10:54 15° WSW 03:14:39 32° S 03:19:18 10° ESE
PAYLOAD A 4.1 03:11:01 10° NNE 03:16:20 89° WNW 03:21:24 10° SSW
USA 238 DEB 4.3 03:15:20 10° NNW 03:22:34 70° NE 03:30:03 10° SE
USA 238 4.3 03:15:26 10° NNW 03:22:40 70° NE 03:30:09 10° SE
NOSS 2-2 (E) 4.2 03:22:45 12° WSW 03:25:44 32° NW 03:29:25 10° NNE
Atlas Centaur 2 3.8 03:20:39 11° SW 03:25:48 27° S 03:32:06 10° SE
NOSS 2-2 (D) 3.9 03:23:29 12° WSW 03:26:32 39° NW 03:30:16 10° NNE
CENTAUR R/B 4.0 03:20:58 10° NNW 03:28:51 56° NE 03:37:28 10° SE
IDEFIX/ARIANE 42P 3.6 03:24:56 10° N 03:29:20 28° WNW 03:33:44 10° WSW
USA 267 3.4 03:23:20 10° SE 03:29:53 84° NE 03:36:27 10° NW
ADEOS 3.9 03:26:04 10° NNE 03:31:18 71° ESE 03:36:29 10° S
Cosmos 2082 Rocket 4.3 03:29:01 10° N 03:34:03 33° NE 03:39:03 10° ESE
MSX 4.4 03:30:00 10° N 03:35:19 40° WNW 03:40:37 10° SW
Cosmos 1174 4.5 03:31:21 10° SSW 03:35:23 67° ESE 03:40:36 10° NE
PSLV R/B 3.8 03:31:58 10° N 03:36:14 53° WNW 03:40:26 10° SSW
COSMOS 2406 3.4 03:33:08 10° NNW 03:38:52 79° ENE 03:44:31 10° SSE
Cosmos 1825 3.1 03:36:20 10° N 03:40:02 53° E 03:43:43 10° SSE
ADEOS Rocket 3.8 03:32:42 10° SSE 03:40:26 84° ENE 03:48:12 10° NNW
Meteor 2-1 Rocket 4.4 03:34:51 10° S 03:40:43 86° W 03:46:42 10° N
Cosmos 2315 Rocket 4.3 03:34:34 10° SSW 03:40:44 52° WNW 03:46:58 10° N
